When you browse on this site, cookies collect data to enhance your experience and personalize the content and advertising you see.
Visit our Privacy Policy to learn more. By continuing to use the site, you agree to this use of cookies and data.
  • In Austria
  • List of Countries
  • For 7 days
  • Water Temperature
  • Satellite Maps
  • Weather Map
  • News
  • Weather Widgets
  • user-avatar
    Login

    Hourly Weather Balho

    Today, 21 January, Monday

    Time Temperature Precipitation Wind Pressure Humidity
    00:00 +27°C° 0 mm 4 mps 739 mmHg 64%
    01:00 +26°C° 0 mm 4 mps 739 mmHg 65%
    02:00 +26°C° 0 mm 3 mps 739 mmHg 67%
    03:00 +25°C° 0 mm 3 mps 739 mmHg 69%
    04:00 +25°C° 0 mm 3 mps 739 mmHg 70%
    05:00 +25°C° 0 mm 3 mps 739 mmHg 72%
    06:00 +24°C° 0 mm 2 mps 740 mmHg 73%
    07:00 +25°C° 0 mm 3 mps 740 mmHg 67%
    08:00 +26°C° 0 mm 3 mps 741 mmHg 61%
    09:00 +27°C° 0 mm 3 mps 741 mmHg 56%
    10:00 +29°C° 0 mm 3 mps 741 mmHg 47%
    11:00 +31°C° 0 mm 3 mps 741 mmHg 38%
    12:00 +33°C° 0 mm 3 mps 741 mmHg 30%
    13:00 +34°C° 0 mm 3 mps 740 mmHg 27%
    14:00 +35°C° 0 mm 4 mps 739 mmHg 25%
    15:00 +36°C° 0 mm 4 mps 739 mmHg 22%
    16:00 +35°C° 0 mm 4 mps 738 mmHg 25%
    17:00 +34°C° 0 mm 5 mps 738 mmHg 28%
    18:00 +34°C° 0 mm 5 mps 738 mmHg 30%
    19:00 +32°C° 0 mm 5 mps 738 mmHg 36%
    20:00 +30°C° 0 mm 5 mps 738 mmHg 41%
    21:00 +29°C° 0 mm 5 mps 738 mmHg 47%
    22:00 +28°C° 0 mm 4 mps 738 mmHg 51%
    23:00 +27°C° 0 mm 4 mps 738 mmHg 55%

    Tomorrow, 22 January, Tuesday

    Time Temperature Precipitation Wind Pressure Humidity
    00:00 +27°C° 0 mm 3 mps 738 mmHg 59%
    01:00 +26°C° 0 mm 3 mps 738 mmHg 63%
    02:00 +26°C° 0 mm 3 mps 738 mmHg 66%
    03:00 +25°C° 0 mm 3 mps 737 mmHg 70%
    04:00 +25°C° 0 mm 3 mps 738 mmHg 72%
    05:00 +25°C° 0 mm 2 mps 738 mmHg 75%
    06:00 +24°C° 0 mm 2 mps 738 mmHg 78%
    07:00 +25°C° 0 mm 3 mps 739 mmHg 72%
    08:00 +26°C° 0 mm 3 mps 739 mmHg 66%
    09:00 +27°C° 0 mm 3 mps 740 mmHg 60%
    10:00 +29°C° 0 mm 3 mps 740 mmHg 51%
    11:00 +31°C° 0 mm 3 mps 740 mmHg 42%
    12:00 +34°C° 0 mm 3 mps 739 mmHg 33%
    13:00 +35°C° 0 mm 3 mps 739 mmHg 30%
    14:00 +35°C° 0 mm 3 mps 738 mmHg 27%
    15:00 +36°C° 0 mm 2 mps 737 mmHg 25%
    16:00 +36°C° 0 mm 3 mps 737 mmHg 27%
    17:00 +35°C° 0 mm 4 mps 737 mmHg 30%
    18:00 +35°C° 0 mm 5 mps 737 mmHg 32%
    19:00 +33°C° 0 mm 5 mps 737 mmHg 41%
    20:00 +30°C° 0 mm 5 mps 737 mmHg 49%
    21:00 +29°C° 0 mm 5 mps 738 mmHg 57%
    22:00 +28°C° 0 mm 5 mps 738 mmHg 59%
    23:00 +28°C° 0 mm 4 mps 737 mmHg 61%

    Day after tomorrow, 23 January, Wednesday

    Time Temperature Precipitation Wind Pressure Humidity
    00:00 +27°C° 0 mm 4 mps 737 mmHg 63%
    01:00 +27°C° 0 mm 3 mps 737 mmHg 66%
    02:00 +26°C° 0 mm 3 mps 737 mmHg 68%
    03:00 +26°C° 0 mm 3 mps 736 mmHg 71%
    04:00 +25°C° 0 mm 3 mps 737 mmHg 73%
    05:00 +25°C° 0 mm 3 mps 737 mmHg 75%
    06:00 +25°C° 0 mm 2 mps 737 mmHg 77%
    07:00 +25°C° 0 mm 3 mps 738 mmHg 71%
    08:00 +26°C° 0 mm 3 mps 739 mmHg 65%
    09:00 +27°C° 0 mm 3 mps 739 mmHg 59%
    10:00 +29°C° 0 mm 3 mps 739 mmHg 51%
    11:00 +31°C° 0 mm 3 mps 739 mmHg 42%
    12:00 +34°C° 0 mm 3 mps 739 mmHg 34%
    13:00 +34°C° 0 mm 3 mps 738 mmHg 32%
    14:00 +35°C° 0 mm 4 mps 737 mmHg 30%
    15:00 +36°C° 0 mm 4 mps 736 mmHg 28%
    16:00 +35°C° 0 mm 5 mps 736 mmHg 32%
    17:00 +34°C° 0 mm 5 mps 736 mmHg 36%
    18:00 +33°C° 0 mm 6 mps 737 mmHg 40%
    19:00 +32°C° 0 mm 6 mps 737 mmHg 45%
    20:00 +29°C° 0 mm 5 mps 738 mmHg 51%
    21:00 +28°C° 0 mm 5 mps 739 mmHg 56%
    22:00 +28°C° 0 mm 4 mps 738 mmHg 57%
    23:00 +27°C° 0 mm 4 mps 738 mmHg 59%

    24 January, Thursday

    Time Temperature Precipitation Wind Pressure Humidity
    00:00 +26°C° 0 mm 4 mps 738 mmHg 60%
    01:00 +26°C° 0 mm 4 mps 738 mmHg 63%
    02:00 +25°C° 0 mm 3 mps 738 mmHg 66%
    03:00 +25°C° 0 mm 3 mps 737 mmHg 69%
    04:00 +25°C° 0 mm 3 mps 738 mmHg 71%
    05:00 +24°C° 0 mm 3 mps 738 mmHg 73%
    06:00 +24°C° 0 mm 2 mps 738 mmHg 75%
    07:00 +25°C° 0 mm 3 mps 739 mmHg 69%
    08:00 +26°C° 0 mm 3 mps 740 mmHg 64%
    09:00 +27°C° 0 mm 3 mps 740 mmHg 58%
    10:00 +29°C° 0 mm 4 mps 740 mmHg 49%
    11:00 +32°C° 0 mm 4 mps 740 mmHg 39%
    12:00 +34°C° 0 mm 4 mps 739 mmHg 30%
    13:00 +34°C° 0 mm 4 mps 739 mmHg 28%
    14:00 +35°C° 0 mm 4 mps 738 mmHg 26%
    15:00 +36°C° 0 mm 5 mps 737 mmHg 23%
    16:00 +35°C° 0 mm 5 mps 737 mmHg 26%
    17:00 +34°C° 0 mm 5 mps 737 mmHg 30%
    18:00 +33°C° 0 mm 6 mps 737 mmHg 33%
    19:00 +32°C° 0 mm 5 mps 738 mmHg 39%
    20:00 +29°C° 0 mm 5 mps 738 mmHg 46%
    21:00 +28°C° 0 mm 4 mps 739 mmHg 53%
    22:00 +28°C° 0 mm 4 mps 739 mmHg 56%
    23:00 +27°C° 0 mm 4 mps 739 mmHg 60%

    25 January, Friday

    Time Temperature Precipitation Wind Pressure Humidity
    00:00 +26°C° 0 mm 3 mps 738 mmHg 64%
    01:00 +26°C° 0 mm 3 mps 738 mmHg 67%
    02:00 +26°C° 0 mm 3 mps 738 mmHg 70%
    03:00 +25°C° 0 mm 3 mps 738 mmHg 73%
    04:00 +25°C° 0 mm 3 mps 738 mmHg 75%
    05:00 +25°C° 0 mm 2 mps 738 mmHg 77%
    06:00 +24°C° 0 mm 2 mps 739 mmHg 80%
    07:00 +25°C° 0 mm 3 mps 740 mmHg 73%
    08:00 +26°C° 0 mm 3 mps 740 mmHg 67%
    09:00 +27°C° 0 mm 4 mps 741 mmHg 61%
    10:00 +29°C° 0 mm 4 mps 741 mmHg 52%
    11:00 +32°C° 0 mm 4 mps 741 mmHg 43%
    12:00 +34°C° 0 mm 4 mps 740 mmHg 34%
    13:00 +34°C° 0 mm 4 mps 739 mmHg 31%
    14:00 +35°C° 0 mm 4 mps 739 mmHg 28%
    15:00 +36°C° 0 mm 4 mps 738 mmHg 25%
    16:00 +35°C° 0 mm 5 mps 738 mmHg 29%
    17:00 +34°C° 0 mm 6 mps 738 mmHg 33%
    18:00 +33°C° 0 mm 6 mps 738 mmHg 37%
    19:00 +32°C° 0 mm 6 mps 738 mmHg 42%
    20:00 +29°C° 0 mm 5 mps 739 mmHg 47%
    21:00 +28°C° 0 mm 5 mps 739 mmHg 53%
    22:00 +28°C° 0 mm 5 mps 739 mmHg 56%
    23:00 +27°C° 0 mm 4 mps 739 mmHg 59%

    26 January, Saturday

    Time Temperature Precipitation Wind Pressure Humidity
    00:00 +26°C° 0 mm 4 mps 739 mmHg 62%
    01:00 +26°C° 0 mm 4 mps 738 mmHg 65%
    02:00 +26°C° 0 mm 3 mps 738 mmHg 68%
    03:00 +25°C° 0 mm 3 mps 738 mmHg 71%
    04:00 +25°C° 0 mm 3 mps 738 mmHg 73%
    05:00 +25°C° 0 mm 2 mps 739 mmHg 75%
    06:00 +24°C° 0 mm 2 mps 739 mmHg 77%
    07:00 +25°C° 0 mm 3 mps 740 mmHg 71%
    08:00 +26°C° 0 mm 4 mps 740 mmHg 65%
    09:00 +28°C° 0 mm 4 mps 741 mmHg 59%
    10:00 +29°C° 0 mm 5 mps 741 mmHg 52%
    11:00 +32°C° 0 mm 5 mps 740 mmHg 44%
    12:00 +34°C° 0 mm 6 mps 740 mmHg 36%
    13:00 +34°C° 0 mm 6 mps 739 mmHg 35%
    14:00 +35°C° 0 mm 6 mps 738 mmHg 33%
    15:00 +35°C° 0 mm 6 mps 738 mmHg 31%
    16:00 +34°C° 0 mm 6 mps 738 mmHg 35%
    17:00 +33°C° 0 mm 7 mps 738 mmHg 39%
    18:00 +32°C° 0 mm 7 mps 738 mmHg 43%
    19:00 +30°C° 0 mm 7 mps 739 mmHg 47%
    20:00 +29°C° 0 mm 6 mps 739 mmHg 52%
    21:00 +28°C° 0 mm 6 mps 739 mmHg 56%
    22:00 +27°C° 0 mm 6 mps 739 mmHg 59%
    23:00 +27°C° 0 mm 6 mps 739 mmHg 62%
    Show more